www.pogodaiklimat.ru

Погода и климат >> Архив погоды >> Пакистан >> Саргодха


ПОГОДА в Саргодхе

  • Прогноз погоды в Саргодхе
  • Монитор погоды в Саргодхе

АРХИВ ПОГОДЫ в Саргодхе

Время (UTC), дата Ветер
(напр.,м/с)
 
Видим.   Явления Облачность Т
(С)
Тd
(С)
f
(%)
Тe
(С)
Тes
(С)
Комфортность P
(гПа)
Po
(гПа)
Тmin
(С)
Tmax
(С)
R
(мм)
R24
(мм)
S
(см)
06 14.05 ЮВ 1 10 км ясно +31.0 +20.6 54 +38 +61 опасность
солнечного
удара
1003.0 982.1
12 14.05 В 1 10 км 6/0
[Ac trans]
+34.0 +20.8 46 +41 +44 опасность
перегрева
998.9 978.3 +35.5
15 14.05 штиль 0 4000 м ясно +30.0 +18.5 50 +35 +35 очень
душно
999.9 979.0
18 14.05 штиль 0 4000 м ясно +28.0 +20.5 64 +35 +35 очень
душно
1001.7 980.7
21 14.05 штиль 0 4000 м ясно +26.5 +19.6 66 +32 +32 очень
душно
1001.0 979.9
00 15.05 штиль 0 4000 м 6/0
[Ac trans]
+26.0 +19.9 69 +32 +32 очень
душно
1001.9 980.7
03 15.05 З 1 4000 м 9/1 1200 м
[Sc Ac trans]
+27.0 +18.5 60 +32 +35 очень
душно
1003.9 982.8 +25.0
06 15.05 ЮВ 1 4000 м мгла 9/1 1200 м
[Sc Ac As]
+31.5 +17.5 43 +35 +43 очень
душно
1003.9 983.1
09 15.05 В 1 4000 м мгла 8/1 1200 м
[Sc Ac trans]
+34.0 +18.0 39 +38 +48 очень
душно
1002.2 981.6
12 15.05 СВ 1 10 км 8/1 1200 м
[Sc Ac trans]
+33.5 +19.2 43 +39 +41 очень
душно
1000.6 980.0 +35.0
15 15.05 штиль 0 4000 м 9/1 1200 м
[Sc Ac trans]
+30.5 +19.1 51 +36 +36 очень
душно
1001.7 980.8
18 15.05 СВ 3 4000 м мгла 9/1 1200 м
[Sc Ac As]
+26.0 +15.4 52 +29 +29 душно 1004.8 983.6
21 15.05 С 6 4000 м мгла 10/3 1200 м
[Sc As op]
+24.5 +16.4 61 +28 +28 душно 1002.6 981.3
03 16.05 С 1 4000 м мгла 8/1 1200 м
[Sc Ac trans]
+26.5 +17.9 59 +31 +35 душно 1006.1 984.9 +23.0
06 16.05 штиль 0 10 км ясно +30.5 +18.2 48 +35 +62 опасность
солнечного
удара
1006.8 985.8
09 16.05 штиль 0 10 км ясно +32.0 +18.2 44 +37 +60 опасность
солнечного
удара
1005.2 984.4
12 16.05 В 2 10 км ясно +32.5 +16.9 39 +36 +40 очень
душно
1003.4 982.6 +33.5
15 16.05 штиль 0 4000 м ясно +30.0 +17.2 46 +34 +34 очень
душно
1003.8 982.9
18 16.05 штиль 0 4000 м ясно +28.0 +18.8 57 +33 +33 очень
душно
1004.1 983.0
21 16.05 штиль 0 4000 м ясно +25.0 +17.9 65 +29 +29 душно 1004.0 982.7
00 17.05 штиль 0 4000 м 4/0
[Ac trans]
+25.0 +17.0 61 +29 +29 душно 1003.6 982.3
03 17.05 ЮЗ 2 10 км 6/0
[Ac trans]
+26.0 +20.7 73 +33 +37 очень
душно
1003.9 982.7 +24.0
06 17.05 З 1 10 км 10/5 1200 м
[Sc As op]
+28.0 +20.5 64 +35 +37 очень
душно
1004.8 983.7
09 17.05 ЮВ 1 10 км 10/5 1200 м
[Sc As op]
+32.0 +20.0 49 +38 +40 очень
душно
1003.0 982.2
12 17.05 штиль 0 10 км {гроза, морось} 10/4 1200 м
[Sc As op]
+25.0 +20.5 76 +31 +32 очень
душно
1002.3 981.0 +32.0 0.0
15 17.05 ЮВ 3 4000 м мгла 10/5 1200 м
[Sc As op]
+24.0 +20.2 79 +30 +30 очень
душно
1001.7 980.4
18 17.05 штиль 0 4000 м мгла 6/3 1200 м
[Sc Ac trans]
+22.0 +18.2 79 +27 +27 душно 1002.9 981.4
21 17.05 штиль 0 4000 м мгла 4/0 1000 м
[Ac trans]
+20.0 +16.7 81 +22 +22 комфорт 1005.9 984.2
00 18.05 ЮВ 1 4000 м мгла 10/5 1200 м
[Sc As op]
+21.0 +17.8 82 +26 +26 душно 1004.8 983.2
03 18.05 В 1 10 км ясно +26.0 +19.9 69 +32 +40 очень
душно
1005.3 984.1 +19.5
06 18.05 СВ 2 10 км ясно +30.5 +19.1 51 +36 +56 опасность
солнечного
удара
1005.4 984.5
09 18.05 СВ 2 10 км 4/0
[Ac trans]
+34.0 +18.9 41 +39 +52 опасность
солнечного
удара
1004.0 983.3
12 18.05 СВ 2 10 км 3/0
[Ac trans]
+35.0 +20.2 42 +41 +44 опасность
перегрева
1002.8 982.2 +35.3
15 18.05 штиль 0 4000 м мгла 5/0
[Ac trans]
+31.5 +21.2 54 +39 +39 очень
душно
1003.0 982.2
18 18.05 З 1 4000 м мгла 4/0
[Ac trans]
+28.0 +20.5 64 +35 +35 очень
душно
1004.0 982.9
21 18.05 штиль 0 4000 м мгла 4/0
[Ac trans]
+26.0 +19.9 69 +32 +32 очень
душно
1004.0 982.8
03 19.05 штиль 0 4000 м мгла ясно +28.0 +21.3 67 +35 +45 очень
душно
1004.3 983.2 +24.0
06 19.05 ЮЗ 2 10 км ясно +35.5 +20.9 43 +43 +62 опасность
перегрева
1004.5 983.9
09 19.05 Ю 2 10 км ясно +38.0 +20.0 35 +43 +61 опасность
перегрева
1002.5 982.1
12 19.05 ЮВ 2 10 км 5/0
[Ac trans]
+38.0 +21.4 38 +45 +48 опасность
перегрева
1000.3 980.0 +39.3
15 19.05 З 8 4000 м гроза, ливневой дождь 10/5 900 м
[Cb cap As op]
+27.5 +19.0 60 +33 +33 очень
душно
1006.1 984.9 2
18 19.05 СВ 3 4000 м дым {гроза, дождь} 10/4 1200 м
[Sc As op]
+23.0 +20.7 87 +30 +30 очень
душно
1007.0 985.5 9
21 19.05 СВ 2 4000 м дым 8/3 1200 м
[Sc Ac trans]
+23.0 +19.9 83 +30 +30 очень
душно
1006.0 984.5
00 20.05 СВ 1 4000 м дым 6/3 1200 м
[Sc Ac trans]
+22.5 +19.4 83 +29 +29 очень
душно
1005.9 984.4
03 20.05 штиль 0 4000 м дым 3/0
[Ac trans]
+24.5 +20.7 79 +30 +38 очень
душно
1007.7 986.3 +22.0
06 20.05 штиль 0 10 км ясно +32.0 +20.9 52 +39 +66 опасность
солнечного
удара
1007.8 986.9
09 20.05 штиль 0 10 км ясно +35.0 +22.0 47 +44 +67 опасность
перегрева
1005.6 985.0
12 20.05 штиль 0 10 км ясно +36.5 +20.3 39 +43 +48 опасность
перегрева
1003.9 983.4 +37.0
00 21.05 штиль 0 4000 м ясно +25.0 +20.5 76 +31 +31 очень
душно
1003.5 982.2

 

Местоположение метеостанции Саргодха (Пакистан): широта 32.05 долгота 72.67 высота над уровнем моря 187 м.

В архиве по умолчанию представлена погода в Саргодхе за последнюю неделю. Архивные данные за месяц целиком и за предыдущие месяцы, начиная с января 2011 года, Вы можете получить, выбрав интересующий диапазон дат из раскрывающегося списка и нажав кнопку "Ввод!".


*Определитесь, кто Вы:
робот инопланетянин человек

Внимание! Время в таблицах - всемирное. Для получения местного времени необходимо прибавить поправку, которая равна 5 ч.

Смотрите также архив погоды в соседних городах и на ближайших метеорологических станциях:

Погода в Джаухарабаде (Пакистан) (55 км)
Погода в Нур Пур Тал (Пакистан) (75 км)
Погода в Фейсалабаде (Пакистан) (80 км)
Погода в Хафизабаде (Пакистан) (92 км)
Погода в Джанге (Пакистан) (93 км)
Погода в Чаквале (Пакистан) (98 км)
Погода в Тоба Тек Сингх (Пакистан) (121 км)
Погода в Мианвали (Пакистан) (122 км)
Погода в Гуджранвале (Пакистан) (138 км)
Погода в Сиалкот аэропорту (Пакистан) (139 км)

Пояснения к столбцам:

Ветер - указаны скорость ветра в м/с - средняя за 10 мин, порывы в срок и между сроками (в фигурных скобках) и направление, откуда дует ветер: С - северный, СВ - северо-восточный, В - восточный, ЮВ - юго-восточный, Ю - южный, ЮЗ - юго-западный, З - западный, СЗ - северо-западный.
Видимость - горизонтальная дальность видимости в метрах или километрах. При видимости от 1 до 10 км при отсутствии осадков обычно наблюдается дымка, при ухудшении видимости до 1 км и менее - туман. В сухую погоду видимость может ухудшаться дымом, пылью или мглою.
Явления - указаны атмосферные явления, наблюдавшиеся в срок или в последний час перед сроком; фигурными скобками обозначены явления, наблюдавшиеся между сроками (за 1-3 часа до срока); квадратными скобками обозначены град или гололедные отложения с указанием их диаметра в мм.
Облачность - указаны через наклонную черту общая и нижняя облачность в баллах и высота нижней границы облаков в метрах; квадратными скобками обозначены формы облаков: Ci - перистые, Cs - перисто-слоистые, Cc - перисто-кучевые, Ac - высококучевые, As - высокослоистые, Sc - слоисто-кучевые, Ns - слоисто-дождевые, Cu - кучевые, Cb - кучево-дождевые. Подробнее классификацию облаков см. в Атласе облаков (PDF).
T - Температура воздуха - температура, измеренная на высоте 2 м над землей.
Td - Температура точки росы - температура, при понижении до которой содержащийся в воздухе водяной пар достигнет насыщения.
f - Относительная влажность воздуха - влажноcть воздуха, измеренная на высоте 2 м над землей.
Te - Эффективная температура - температура, которую ощущает одетый по сезону человек в тени. Характеристика душности погоды. При расчете учитывается влияние влажности воздуха и скорости ветра на теплоощущения человека.
Tes - Эффективная температура на солнце - температура, которую ощущает человек, с поправкой на солнечный нагрев. Характеристика знойности погоды. Зависит от высоты солнца над горизонтом, облачности и скорости ветра. Ночью, в пасмурную погоду, а также при ветре 12 м/с и более поправка равна нулю.
P - Атмосферное давление - приведенное к уровню моря атмосферное давление.
Po - Атмосферное давление - измеренное на уровне метеостанции атмосферное давление.
Tmin - Минимальная температура - минимум температуры воздуха на высоте 2 м над землей.
Tmax - Максимальная температура - максимум температуры воздуха на высоте 2 м над землей.
R - Количество осадков - Количество выпавших осадков за период времени, мм. При наведении курсора мыши на число - период времени, за который выпало указанное количество осадков.
R24 - Количество осадков - Количество выпавших осадков за 24 часа, мм.
S - Снежный покров - Высота снежного покрова, см. При наведении курсора мыши на число - состояние снежного покрова и степень покрытия местности в баллах.